Location: Archemont
(49.1579°N, 1.7598°E)
Time: 13:10:35
(UTC+00:00)

Transit 2A - Pass Details

Date: 13 April 2024
Orbit: 593 x 958 km, 66.7° (Epoch: 30 May)

Event Time Altitude Azimuth Distance (km) Brightness Sun altitude
Rises 14:08:17 0° 325° (NW) 3,103 9.1 41.3°
Reaches altitude 10° 14:11:12 10° 344° (NNW) 2,250 8.3 40.9°
Maximum altitude 14:14:53 19° 30° (NNE) 1,782 7.7 40.5°
Drops below altitude 10° 14:18:48 10° 75° (ENE) 2,423 8.3 40.0°
Sets 14:22:05 0° 92° (E) 3,427 9.0 39.6°
